FW7858 Weather Reports


Display with metric or nautical units.
time (UTC)temp
F
wind
direction
speed
MPH
gust
MPH
rain 1hr
in
rain 24hr
in
rain mn
in
humidity
%
barometer
mb
20260902190542 80 5 2.0 5.0 0.00 0.00 0.00 52 1009.7
20260902190043 80 360 1.0 5.0 0.00 0.00 0.00 53 1009.7
20260902185542 80 5 0.0 6.0 0.00 0.00 0.00 53 1009.7
20260902185040 80 9 3.0 6.0 0.00 0.00 0.00 51 1009.8
20260902184541 79 9 1.0 5.0 0.00 0.00 0.00 55 1009.8
20260902184037 79 12 0.0 9.0 0.00 0.00 0.00 55 1009.8
20260902183537 78 5 4.0 9.0 0.00 0.00 0.00 53 1010.0
20260902183036 78 5 2.0 9.0 0.00 0.00 0.00 53 1009.9
20260902182535 78 5 4.0 9.0 0.00 0.00 0.00 49 1009.9
20260902182039 78 5 4.0 8.0 0.00 0.00 0.00 52 1009.9
20260902181538 78 9 1.0 8.0 0.00 0.00 0.00 57 1009.9
20260902181034 78 9 2.0 8.0 0.00 0.00 0.00 58 1010.0
20260902180532 78 355 3.0 7.0 0.00 0.00 0.00 57 1010.1
20260902180030 77 360 1.0 3.0 0.00 0.00 0.00 60 1010.2
20260902175530 77 360 2.0 6.0 0.00 0.00 0.00 61 1010.3
20260902175030 77 360 3.0 4.0 0.00 0.00 0.00 59 1010.3
20260902174529 77 355 1.0 4.0 0.00 0.00 0.00 59 1010.4
20260902174028 76 360 0.0 2.0 0.00 0.00 0.00 60 1010.4
20260902173528 76 360 0.0 4.0 0.00 0.00 0.00 60 1010.4
20260902173028 76 360 2.0 5.0 0.00 0.00 0.00 59 1010.4
20260902172527 77 5 3.0 5.0 0.00 0.00 0.00 58 1010.3
20260902172026 77 355 2.0 6.0 0.00 0.00 0.00 57 1010.3
20260902171526 76 355 3.0 9.0 0.00 0.00 0.00 62 1010.3
20260902171028 76 5 1.0 9.0 0.00 0.00 0.00 60 1010.1
20260902170522 76 5 2.0 8.0 0.00 0.00 0.00 62 1010.1
20260902170022 76 355 3.0 8.0 0.00 0.00 0.00 66 1010.2
20260902165521 76 355 2.0 6.0 0.00 0.00 0.00 64 1010.2
20260902165020 76 355 3.0 8.0 0.00 0.00 0.00 62 1010.2
20260902164518 75 5 2.0 9.0 0.00 0.00 0.00 65 1010.2
20260902164017 75 5 4.0 9.0 0.00 0.00 0.00 64 1010.3
20260902163516 75 355 4.0 9.0 0.00 0.00 0.00 65 1010.4
20260902163016 75 360 4.0 9.0 0.00 0.00 0.00 65 1010.4
20260902162514 74 5 4.0 8.0 0.00 0.00 0.00 67 1010.4
20260902162015 74 5 3.0 8.0 0.00 0.00 0.00 68 1010.5
20260902161512 73 360 3.0 5.0 0.00 0.00 0.00 70 1010.6
20260902161012 73 5 2.0 5.0 0.00 0.00 0.00 70 1010.6
20260902160514 73 5 3.0 5.0 0.00 0.00 0.00 71 1010.6
20260902160012 73 5 1.0 4.0 0.00 0.00 0.00 72 1010.6
20260902155510 73 5 2.0 6.0 0.00 0.00 0.00 72 1010.4
20260902155011 73 5 3.0 6.0 0.00 0.00 0.00 69 1010.3
20260902154510 73 5 3.0 5.0 0.00 0.00 0.00 69 1010.4
20260902154009 73 5 2.0 5.0 0.00 0.00 0.00 71 1010.5
20260902153509 73 360 3.0 5.0 0.00 0.00 0.00 72 1010.5
20260902153009 73 5 1.0 4.0 0.00 0.00 0.00 74 1010.5
20260902152510 72 5 2.0 4.0 0.00 0.00 0.00 75 1010.3
20260902152005 72 5 2.0 4.0 0.00 0.00 0.00 75 1010.4
20260902151505 72 5 1.0 3.0 0.00 0.00 0.00 75 1010.5
20260902151007 72 5 1.0 3.0 0.00 0.00 0.00 74 1010.5
20260902150504 72 5 1.0 3.0 0.00 0.00 0.00 74 1010.6
20260902150006 72 5 2.0 3.0 0.00 0.00 0.00 73 1010.6
20260902145504 72 5 1.0 4.0 0.00 0.00 0.00 74 1010.5
20260902145003 72 5 2.0 5.0 0.00 0.00 0.00 73 1010.4
20260902144506 72 5 2.0 5.0 0.00 0.00 0.00 73 1010.6
20260902144003 72 5 2.0 6.0 0.00 0.00 0.00 73 1010.6
20260902143503 72 5 3.0 6.0 0.00 0.00 0.00 72 1010.6
20260902143001 71 348 2.0 5.0 0.00 0.00 0.00 75 1010.7
20260902142600 71 321 0.0 4.0 0.00 0.00 0.00 76 1010.8
20260902142101 70 308 1.0 4.0 0.00 0.00 0.00 78 1010.9
20260902141558 69 300 0.0 4.0 0.00 0.00 0.00 81 1010.9
20260902141059 69 298 1.0 3.0 0.00 0.00 0.00 82 1010.8
20260902140554 68 298 0.0 3.0 0.00 0.00 0.00 84 1010.9
20260902140053 67 298 0.0 3.0 0.00 0.00 0.00 87 1010.9
20260902135552 66 298 1.0 3.0 0.00 0.00 0.00 89 1011.1
20260902135052 65 298 0.0 2.0 0.00 0.00 0.00 89 1011.2
20260902134554 64 298 1.0 3.0 0.00 0.00 0.00 89 1011.1
20260902134051 64 298 1.0 3.0 0.00 0.00 0.00 89 1011.2
20260902133551 64 298 0.0 0.0 0.00 0.00 0.00 89 1011.3
20260902133053 64 298 0.0 2.0 0.00 0.00 0.00 89 1011.3
20260902132550 64 298 1.0 2.0 0.00 0.00 0.00 88 1011.2
20260902132050 64 298 1.0 3.0 0.00 0.00 0.00 88 1011.1
20260902131556 64 298 0.0 4.0 0.00 0.00 0.00 89 1011.1
20260902131050 63 298 2.0 4.0 0.00 0.00 0.00 89 1011.1
20260902130550 63 298 2.0 4.0 0.00 0.00 0.00 89 1011.1
20260902130050 63 298 2.0 4.0 0.00 0.00 0.00 90 1011.2
20260902125549 63 296 1.0 3.0 0.00 0.00 0.00 91 1011.2
20260902125051 63 296 1.0 3.0 0.00 0.00 0.00 91 1011.1
20260902124549 62 296 1.0 3.0 0.00 0.00 0.00 91 1011.1
20260902124049 62 296 1.0 3.0 0.00 0.00 0.00 91 1011.1
20260902123548 62 296 1.0 3.0 0.00 0.00 0.00 92 1011.1
20260902123049 62 296 1.0 2.0 0.00 0.00 0.00 92 1011.1
20260902122548 61 296 1.0 3.0 0.00 0.00 0.00 93 1010.9
20260902122048 61 360 2.0 3.0 0.00 0.00 0.00 93 1010.8
20260902121549 61 360 1.0 2.0 0.00 0.00 0.00 94 1010.8
20260902121047 60 360 0.0 3.0 0.00 0.00 0.00 94 1010.8
20260902120547 60 360 1.0 4.0 0.00 0.00 0.00 95 1010.8
20260902120047 60 360 1.0 3.0 0.00 0.00 0.00 96 1010.8
20260902115546 60 360 1.0 3.0 0.00 0.00 0.00 96 1010.9
20260902115045 59 360 1.0 2.0 0.00 0.00 0.00 95 1011.0
20260902114546 59 360 0.0 2.0 0.00 0.00 0.00 94 1011.0
20260902114044 59 360 0.0 2.0 0.00 0.00 0.00 95 1011.1
20260902113544 59 360 0.0 1.0 0.00 0.00 0.00 95 1011.0
20260902113050 59 360 0.0 3.0 0.00 0.00 0.00 94 1010.9
20260902112543 59 360 1.0 3.0 0.00 0.00 0.00 95 1010.9
20260902112042 59 360 0.0 3.0 0.00 0.00 0.00 95 1010.7
20260902111542 58 360 2.0 3.0 0.00 0.00 0.00 95 1010.6
20260902111044 58 360 0.0 2.0 0.00 0.00 0.00 93 1010.8
20260902110540 58 360 0.0 2.0 0.00 0.00 0.00 92 1010.8
20260902110042 58 360 0.0 2.0 0.00 0.00 0.00 91 1010.7
20260902105537 59 360 1.0 2.0 0.00 0.00 0.00 92 1010.7
20260902105037 60 360 0.0 0.0 0.00 0.00 0.00 93 1010.5
20260902104558 60 360 0.0 0.0 0.00 0.00 0.00 93 1010.5
20260902104037 60 360 0.0 0.0 0.00 0.00 0.00 93 1010.5
20260902103536 60 360 0.0 0.0 0.00 0.00 0.00 93 1010.5
20260902103036 60 360 0.0 0.0 0.00 0.00 0.00 92 1010.7
20260902102535 60 360 0.0 0.0 0.00 0.00 0.00 92 1010.8
20260902102035 61 360 0.0 0.0 0.00 0.00 0.00 93 1010.8
20260902101534 61 360 0.0 0.0 0.00 0.00 0.00 93 1010.7
20260902101034 61 360 0.0 0.0 0.00 0.00 0.00 93 1010.8
20260902100536 61 360 0.0 1.0 0.00 0.00 0.00 92 1010.8
20260902100036 61 360 0.0 1.0 0.00 0.00 0.00 92 1010.8
20260902095534 61 360 0.0 0.0 0.00 0.00 0.00 93 1010.8
20260902095032 60 360 0.0 0.0 0.00 0.00 0.00 92 1010.8
20260902094532 60 360 0.0 0.0 0.00 0.00 0.00 92 1010.8
20260902094036 60 360 0.0 0.0 0.00 0.00 0.00 92 1011.0
20260902093532 60 360 0.0 0.0 0.00 0.00 0.00 91 1010.9
20260902093034 60 360 0.0 2.0 0.00 0.00 0.00 91 1010.9
20260902092531 60 360 0.0 2.0 0.00 0.00 0.00 91 1010.9
20260902092029 61 360 0.0 0.0 0.00 0.00 0.00 90 1010.8
20260902091529 61 360 0.0 0.0 0.00 0.00 0.00 90 1010.8
20260902091028 61 360 0.0 0.0 0.00 0.00 0.00 90 1010.8
20260902090529 61 360 0.0 2.0 0.00 0.00 0.00 91 1010.8
20260902090028 61 360 0.0 2.0 0.00 0.00 0.00 91 1010.7
20260902085526 60 360 1.0 2.0 0.00 0.00 0.00 92 1010.6
20260902085026 60 360 1.0 2.0 0.00 0.00 0.00 92 1010.5
20260902084525 61 360 0.0 1.0 0.00 0.00 0.00 93 1010.5
20260902084025 61 360 0.0 3.0 0.00 0.00 0.00 93 1010.5
20260902083524 61 360 1.0 3.0 0.00 0.00 0.00 92 1010.3
20260902083024 61 360 0.0 0.0 0.00 0.00 0.00 92 1010.3
20260902082524 60 360 0.0 0.0 0.00 0.00 0.00 92 1010.2
20260902082028 61 360 0.0 0.0 0.00 0.00 0.00 92 1010.2
20260902081522 61 360 0.0 0.0 0.00 0.00 0.00 92 1010.1
20260902081022 61 360 0.0 0.0 0.00 0.00 0.00 92 1009.9
20260902080520 61 360 0.0 0.0 0.00 0.00 0.00 92 1009.8
20260902080022 61 360 0.0 0.0 0.00 0.00 0.00 92 1009.8
20260902075519 61 360 0.0 0.0 0.00 0.00 0.00 92 1009.9
20260902075019 62 360 0.0 0.0 0.00 0.00 0.00 92 1009.7
20260902074517 62 360 0.0 0.0 0.00 0.00 0.00 92 1009.8
20260902074017 62 360 0.0 0.0 0.00 0.00 0.00 92 1009.7
20260902073515 62 360 0.0 0.0 0.00 0.00 0.00 92 1009.7
20260902073014 63 284 0.0 0.0 0.00 0.00 0.00 92 1009.8
20260902072513 63 284 0.0 0.0 0.00 0.00 0.00 92 1009.7
20260902072012 63 284 0.0 3.0 0.00 0.00 0.00 92 1009.7
20260902071521 63 284 0.0 3.0 0.00 0.00 0.00 93 1009.8
20260902071012 63 284 0.0 3.0 0.00 0.00 0.00 93 1009.9
20260902070509 64 284 1.0 2.0 0.00 0.00 0.00 92 1010.0
20260902070008 64 284 0.0 0.0 0.00 0.00 0.00 92 1010.1
20260902065507 64 284 0.0 0.0 0.00 0.00 0.00 92 1010.1
20260902065008 64 284 0.0 2.0 0.00 0.00 0.00 93 1010.3
20260902064511 64 284 0.0 2.0 0.00 0.00 0.00 92 1010.3
20260902064008 64 284 0.0 0.0 0.00 0.00 0.00 92 1010.2
20260902063504 64 284 0.0 0.0 0.00 0.00 0.00 91 1010.4
20260902063007 64 284 0.0 0.0 0.00 0.00 0.00 91 1010.3
20260902062505 65 284 0.0 2.0 0.00 0.00 0.00 91 1010.4
20260902062004 65 284 0.0 3.0 0.00 0.00 0.00 92 1010.3
20260902061505 65 284 1.0 3.0 0.00 0.00 0.00 92 1010.4
20260902061003 65 284 1.0 2.0 0.00 0.00 0.00 92 1010.4
20260902060501 65 284 1.0 2.0 0.00 0.00 0.00 92 1010.5
20260902060001 65 284 1.0 2.0 0.00 0.00 0.00 92 1010.6
20260902055501 64 284 0.0 0.0 0.00 0.00 0.00 91 1010.6
20260902055002 64 284 0.0 0.0 0.00 0.00 0.00 90 1010.7
20260902054600 64 284 0.0 0.0 0.00 0.00 0.00 89 1010.7
20260902054102 65 284 0.0 0.0 0.00 0.00 0.00 89 1010.7
20260902053602 65 284 0.0 0.0 0.00 0.00 0.00 89 1010.8
20260902053102 65 284 0.0 0.0 0.00 0.00 0.00 89 1010.8
20260902052559 65 284 0.0 1.0 0.00 0.00 0.00 88 1010.8
20260902052055 65 284 0.0 2.0 0.00 0.00 0.00 88 1010.7
20260902051604 66 284 0.0 3.0 0.00 0.00 0.00 88 1010.5
20260902051054 66 284 1.0 3.0 0.00 0.00 0.00 88 1010.4
20260902050553 66 209 0.0 0.0 0.00 0.00 0.00 87 1010.5
20260902050051 66 209 0.0 0.0 0.00 0.00 0.00 86 1010.6
20260902045555 66 209 0.0 0.0 0.00 0.00 0.00 85 1010.7
20260902045051 66 209 0.0 2.0 0.00 0.00 0.00 85 1010.6
20260902044551 66 209 0.0 3.0 0.00 0.00 0.00 84 1010.7
20260902044051 67 209 1.0 3.0 0.00 0.00 0.00 85 1010.5
20260902043551 67 208 1.0 2.0 0.00 0.00 0.00 86 1010.7
20260902043053 67 208 0.0 2.0 0.00 0.00 0.00 86 1010.8
20260902042551 67 208 0.0 0.0 0.00 0.00 0.00 85 1010.8
20260902042050 67 208 0.0 0.0 0.00 0.00 0.00 84 1010.8
20260902041550 67 208 0.0 0.0 0.00 0.00 0.00 82 1010.9
20260902041050 67 208 0.0 0.0 0.00 0.00 0.00 82 1010.9
20260902040550 67 208 0.0 0.0 0.00 0.00 0.00 81 1010.9
20260902040049 68 208 0.0 0.0 0.00 0.00 0.00 82 1010.9
20260902035550 68 208 0.0 0.0 0.00 0.00 0.00 82 1011.0
20260902035049 68 208 0.0 0.0 0.00 0.00 0.00 81 1011.0
20260902034549 68 208 0.0 0.0 0.00 0.00 0.00 79 1010.9
20260902034048 68 208 0.0 0.0 0.00 0.00 0.00 80 1010.9
20260902033551 68 208 0.0 0.0 0.00 0.00 0.00 79 1010.9
20260902033049 68 208 0.0 0.0 0.00 0.00 0.00 79 1011.0
20260902032549 68 208 0.0 0.0 0.00 0.00 0.00 79 1011.0
20260902032050 68 208 0.0 0.0 0.00 0.00 0.00 79 1011.0
20260902031548 68 208 0.0 0.0 0.00 0.00 0.00 79 1011.0
20260902031048 68 208 0.0 0.0 0.00 0.00 0.00 80 1011.0
20260902030548 68 208 0.0 0.0 0.00 0.00 0.00 79 1010.9
20260902030047 68 208 0.0 0.0 0.00 0.00 0.00 79 1010.8
20260902025547 69 208 0.0 0.0 0.00 0.00 0.00 79 1010.7
20260902025047 69 208 0.0 0.0 0.00 0.00 0.00 78 1010.7
20260902024547 69 208 0.0 0.0 0.00 0.00 0.00 77 1010.7
20260902024046 69 208 0.0 0.0 0.00 0.00 0.00 78 1010.7
20260902023546 69 208 0.0 0.0 0.00 0.00 0.00 77 1010.6
20260902023048 70 208 0.0 0.0 0.00 0.00 0.00 77 1010.6
20260902022547 70 208 0.0 0.0 0.00 0.00 0.00 73 1010.5
20260902022046 70 208 0.0 0.0 0.00 0.00 0.00 73 1010.5
20260902021548 70 208 0.0 0.0 0.00 0.00 0.00 74 1010.5
20260902021047 70 208 0.0 1.0 0.00 0.00 0.00 73 1010.5
20260902020546 70 208 0.0 4.0 0.00 0.00 0.00 74 1010.5
20260902020105 71 208 0.0 4.0 0.00 0.00 0.00 73 1010.5
20260902015545 71 208 3.0 4.0 0.00 0.00 0.00 73 1010.4
20260902015045 71 240 0.0 2.0 0.00 0.00 0.00 72 1010.4
20260902014552 71 240 0.0 3.0 0.00 0.00 0.00 72 1010.5
20260902014046 71 240 1.0 3.0 0.00 0.00 0.00 75 1010.4
20260902013550 71 240 1.0 2.0 0.00 0.00 0.00 76 1010.4
20260902013046 72 240 1.0 2.0 0.00 0.00 0.00 73 1010.4
20260902012544 72 240 0.0 0.0 0.00 0.00 0.00 71 1010.4
20260902012044 72 240 0.0 0.0 0.00 0.00 0.00 70 1010.4
20260902011544 72 240 0.0 0.0 0.00 0.00 0.00 70 1010.3
20260902011045 73 240 0.0 0.0 0.00 0.00 0.00 69 1010.1
20260902010545 73 240 0.0 0.0 0.00 0.00 0.00 69 1010.2
20260902010048 73 240 0.0 0.0 0.00 0.00 0.00 69 1010.1
20260902005548 74 240 0.0 0.0 0.00 0.00 0.00 68 1010.1
20260902005043 74 240 0.0 0.0 0.00 0.00 0.00 67 1010.1
20260902004543 74 240 0.0 0.0 0.00 0.00 0.00 66 1010.1
20260902004043 74 240 0.0 0.0 0.00 0.00 0.00 66 1010.0
20260902003543 75 240 0.0 0.0 0.00 0.00 0.00 67 1010.2
20260902003043 75 240 0.0 0.0 0.00 0.00 0.00 67 1010.3
20260902002542 75 240 0.0 0.0 0.00 0.00 0.00 66 1010.3
20260902002042 75 240 0.0 0.0 0.00 0.00 0.00 65 1010.3
20260902001542 76 240 0.0 0.0 0.00 0.00 0.00 64 1010.3
20260902001046 76 240 0.0 0.0 0.00 0.00 0.00 62 1010.2
20260902000542 76 240 0.0 0.0 0.00 0.00 0.00 61 1010.2
20260902000044 76 240 0.0 0.0 0.00 0.00 0.00 59 1010.1
20260901235542 77 240 0.0 0.0 0.00 0.00 0.00 58 1010.1
20260901235041 77 240 0.0 0.0 0.00 0.00 0.00 58 1010.1
20260901234559 77 240 0.0 1.0 0.00 0.00 0.00 58 1010.1
20260901234042 77 240 0.0 1.0 0.00 0.00 0.00 57 1010.1
20260901233541 77 240 0.0 0.0 0.00 0.00 0.00 58 1010.2
20260901233050 78 240 0.0 0.0 0.00 0.00 0.00 57 1010.1
20260901232541 78 240 0.0 0.0 0.00 0.00 0.00 58 1010.2
20260901232041 78 240 0.0 1.0 0.00 0.00 0.00 58 1010.3
20260901231540 78 240 0.0 2.0 0.00 0.00 0.00 57 1010.3
20260901231041 78 240 1.0 3.0 0.00 0.00 0.00 57 1010.4
20260901230542 78 240 1.0 3.0 0.00 0.00 0.00 55 1010.4
20260901230047 78 240 0.0 3.0 0.00 0.00 0.00 55 1010.4
20260901225540 78 240 1.0 3.0 0.00 0.00 0.00 54 1010.4
20260901225039 78 240 1.0 3.0 0.00 0.00 0.00 54 1010.4
20260901224542 78 240 1.0 3.0 0.00 0.00 0.00 53 1010.4
20260901224039 79 240 0.0 5.0 0.00 0.00 0.00 53 1010.4
20260901223540 79 241 2.0 5.0 0.00 0.00 0.00 51 1010.5
20260901223038 79 240 2.0 5.0 0.00 0.00 0.00 52 1010.5
20260901222538 79 240 3.0 7.0 0.00 0.00 0.00 52 1010.6
20260901222038 80 238 2.0 7.0 0.00 0.00 0.00 51 1010.5
20260901221602 80 240 3.0 7.0 0.00 0.00 0.00 50 1010.5
20260901221038 81 238 2.0 7.0 0.00 0.00 0.00 49 1010.6
20260901220537 80 240 3.0 6.0 0.00 0.00 0.00 52 1010.7
20260901220036 79 248 2.0 5.0 0.00 0.00 0.00 54 1010.7
20260901215536 79 240 0.0 4.0 0.00 0.00 0.00 56 1010.6
20260901215035 79 240 0.0 4.0 0.00 0.00 0.00 54 1010.7
20260901214536 79 240 1.0 5.0 0.00 0.00 0.00 53 1010.7
20260901214035 79 240 1.0 5.0 0.00 0.00 0.00 53 1010.6
20260901213537 79 239 0.0 5.0 0.00 0.00 0.00 54 1010.6
20260901213038 79 239 3.0 5.0 0.00 0.00 0.00 55 1010.7
20260901212535 79 236 2.0 4.0 0.00 0.00 0.00 55 1010.6
20260901212034 79 235 2.0 4.0 0.00 0.00 0.00 54 1010.5
20260901211537 79 235 0.0 3.0 0.00 0.00 0.00 56 1010.4
20260901211034 79 235 1.0 5.0 0.00 0.00 0.00 54 1010.4
20260901210533 79 235 1.0 5.0 0.00 0.00 0.00 52 1010.5
20260901210037 80 237 3.0 7.0 0.00 0.00 0.00 51 1010.6
20260901205531 80 236 0.0 5.0 0.00 0.00 0.00 52 1010.6
20260901205031 80 227 1.0 5.0 0.00 0.00 0.00 51 1010.6
20260901204535 80 242 1.0 7.0 0.00 0.00 0.00 51 1010.6
20260901204031 81 241 2.0 7.0 0.00 0.00 0.00 49 1010.6
20260901203531 81 246 2.0 7.0 0.00 0.00 0.00 49 1010.6
20260901203046 81 233 1.0 10.0 0.00 0.00 0.00 48 1010.6
20260901202531 81 218 5.0 10.0 0.00 0.00 0.00 48 1010.6
20260901202032 82 234 4.0 10.0 0.00 0.00 0.00 49 1010.5
20260901201539 81 250 4.0 10.0 0.00 0.00 0.00 50 1010.6
20260901201027 81 252 1.0 10.0 0.00 0.00 0.00 50 1010.6
20260901200525 81 240 2.0 8.0 0.00 0.00 0.00 51 1010.6
20260901200028 80 240 4.0 8.0 0.00 0.00 0.00 53 1010.6
20260901195522 79 244 0.0 4.0 0.00 0.00 0.00 54 1010.6
20260901195023 78 245 2.0 8.0 0.00 0.00 0.00 57 1010.7
20260901194521 78 243 4.0 8.0 0.00 0.00 0.00 56 1010.8
20260901194023 78 241 2.0 4.0 0.00 0.00 0.00 55 1010.9
20260901193520 78 241 0.0 2.0 0.00 0.00 0.00 57 1010.8
20260901193020 78 241 0.0 2.0 0.00 0.00 0.00 57 1010.9
20260901192521 77 241 0.0 5.0 0.00 0.00 0.00 58 1010.9
20260901192024 77 241 2.0 7.0 0.00 0.00 0.00 56 1011.1
20260901191521 78 242 3.0 7.0 0.00 0.00 0.00 56 1011.1
20260901191018 78 245 3.0 7.0 0.00 0.00 0.00 56 1010.9